Location: College Park
(38.9810°N, 76.9370°W)
Time: 08:30:37
(UTC-05:00)

OTV 5 (USA 277) - Pass Details

Date: 11 January 2018
Orbit: 404 x 417 km, 43.0° (Epoch: 07 September)

Event Time Altitude Azimuth Distance (km) Brightness Sun altitude
Exits shadow 06:32:47 12° 258° (WSW) 1,346 ? -10.3°
Maximum altitude 06:34:49 19° 216° (SW) 1,028 ? -10.0°
Drops below altitude 10° 06:37:13 10° 168° (SSE) 1,447 ? -9.5°
Sets 06:39:41 0° 150° (SSE) 2,303 ? -9.1°
